Flag for U.S.A. Weather past 2 weeks in Grand Rapids, Michigan, U.S.A.

Now
31 °F

Low clouds.


Feels Like: 23 °F
Forecast: 29 / 34 °F
Wind: 9 mph from Southwest

Location: Kent County International Airport

Current Time: Dec 18, 2014 at 2:56:45 PM

Latest Report: Dec 18, 2014 at 1:53 PM


Visibility: 7 mi

Pressure: 30.20 "Hg

Humidity: 92%

Dew point: 29 °F

Location of Grand RapidsLocation

Historic Weather in Grand Rapids — Graph

°F

Grand Rapids temperature yesterday

Maximum temperature yesterday: 34 °F (at 12:53 AM)
Minimum temperature yesterday: 27 °F (at 3:53 PM)
Average temperature yesterday: 29 °F

Past Weeks' High & Low Weather Summary

 TemperatureHumidityPressure
High49 °F (Dec 15, 2:53 PM)100% (Dec 13, 4:53 PM)30.72 "Hg (Dec 13, 4:53 PM)
Low20 °F (Dec 7, 6:53 AM)47% (Dec 6, 3:53 PM)29.66 "Hg (Dec 16, 6:53 AM)
Average34 °F80%30.21 "Hg
* Reported Dec 3 1:53 PM — Dec 18 1:53 PM, Grand Rapids, Weather by CustomWeather, © 2014

Note: Actual official high and low records may vary slightly from our data, if they occured in-between our weather recording intervals... More about our weather records

Advertising

Grand Rapids weather history for previous 24 hours

 ConditionsComfort  
Time TempWeatherWind HumidityBarometerVisibility
1:53 PM
Dec 18
31 °FLow clouds.9 mph92%30.20 "Hg7 mi
12:53 PM31 °FIce fog.8 mph89%30.22 "Hg5 mi
11:53 AM31 °FLight snow. Ice fog.8 mph89%30.24 "Hg4 mi
10:53 AM31 °FLight freezing rain. Ice fog.7 mph92%30.26 "Hg2 mi
9:53 AM31 °FOvercast.7 mph89%30.25 "Hg8 mi
8:53 AM31 °FIce fog.7 mph85%30.24 "Hg6 mi
7:53 AM30 °FMostly cloudy.8 mph85%30.22 "Hg10 mi
6:53 AM30 °FMostly cloudy.9 mph82%30.23 "Hg10 mi
5:53 AM30 °FMostly cloudy.9 mph82%30.22 "Hg10 mi
4:53 AM30 °FMostly cloudy.7 mph79%30.23 "Hg10 mi
3:53 AM30 °FOvercast.9 mph79%30.24 "Hg10 mi
2:53 AM29 °FMostly cloudy.8 mph79%30.24 "Hg10 mi
1:53 AM29 °FOvercast.6 mph79%30.24 "Hg10 mi
12:53 AM29 °FOvercast.10 mph75%30.24 "Hg10 mi
11:53 PM
Dec 17
29 °FOvercast.13 mph72%30.23 "Hg10 mi
10:53 PM29 °FOvercast.10 mph72%30.20 "Hg10 mi
9:53 PM28 °FOvercast.9 mph72%30.20 "Hg10 mi
8:53 PM28 °FLight snow. Overcast.8 mph69%30.20 "Hg9 mi
7:53 PM28 °FLight snow. Overcast.12 mph69%30.20 "Hg9 mi
6:53 PM27 °FLight snow. Overcast.12 mph69%30.19 "Hg9 mi
5:53 PM27 °FLight snow. Overcast.14 mph72%30.18 "Hg9 mi
4:53 PM27 °FLight snow. Overcast.16 mph69%30.16 "Hg9 mi
3:53 PM27 °FLight snow. Cloudy.15 mph81%30.15 "Hg2 mi
2:53 PM28 °FLight snow. Cloudy.14 mph81%30.13 "Hg1 mi
Weather by CustomWeather, © 2014

See weather overviewHow to use our weather pages